Location: Unspecified
(0.0000°N, 0.0000°E)
Time: 16:20:27
(UTC+00:00)

Courier 1B Rocket - Pass Details

Date: 19 November 2019
Orbit: 920 x 1202 km, 28.2° (Epoch: 12 December)

Event Time Altitude Azimuth Distance (km) Brightness Sun altitude
Rises 00:58:59 0° 274° (W) 4,017 - -63.5°
Reaches altitude 10° 01:02:24 10° 262° (W) 3,017 - -62.9°
Maximum altitude 01:08:20 26° 208° (SSW) 2,010 - -61.9°
Drops below altitude 10° 01:14:00 10° 154° (SSE) 2,852 - -60.9°
Exits shadow 01:16:59 - 142° (SE) 3,708 8.5 -60.3°
Sets 01:17:09 0° 141° (SE) 3,756 8.5 -60.3°
